Year,Month,Day,Hour,Minute,Value (Times are PST for temperature in C)
2018,04,23,08,34,9.50
2018,04,23,08,35,9.50
2018,04,23,08,36,9.50
2018,04,23,08,37,9.60
2018,04,23,08,38,9.60
2018,04,23,08,39,9.60
2018,04,23,08,40,9.60
2018,04,23,08,41,9.60
2018,04,23,08,42,9.60
2018,04,23,08,43,9.60
2018,04,23,08,44,9.60
2018,04,23,08,45,9.60
2018,04,23,08,46,9.60
2018,04,23,08,47,9.60
2018,04,23,08,48,9.60
2018,04,23,08,49,9.70
2018,04,23,08,50,9.70
2018,04,23,08,51,9.80
2018,04,23,08,52,9.80
2018,04,23,08,53,9.90
2018,04,23,08,54,9.90
2018,04,23,08,55,9.90
2018,04,23,08,56,9.90
2018,04,23,08,57,10.00
2018,04,23,08,58,10.10
2018,04,23,08,59,10.10
2018,04,23,09,00,10.10
2018,04,23,09,01,10.10
2018,04,23,09,02,10.10
2018,04,23,09,03,10.10
2018,04,23,09,04,10.10
2018,04,23,09,05,10.00
2018,04,23,09,06,10.00
2018,04,23,09,07,9.90
2018,04,23,09,08,9.90
2018,04,23,09,09,9.80
2018,04,23,09,10,9.80
2018,04,23,09,11,9.80
2018,04,23,09,12,9.80
2018,04,23,09,13,9.80
2018,04,23,09,14,9.80
2018,04,23,09,15,9.80
2018,04,23,09,16,9.80
2018,04,23,09,17,9.80
2018,04,23,09,18,9.80
2018,04,23,09,19,9.80
2018,04,23,09,20,9.80
2018,04,23,09,21,9.80
2018,04,23,09,22,9.80
2018,04,23,09,23,9.80
2018,04,23,09,24,9.80
2018,04,23,09,25,9.90
2018,04,23,09,26,9.90
2018,04,23,09,27,9.90
2018,04,23,09,28,9.90
2018,04,23,09,29,9.90
2018,04,23,09,30,9.90
2018,04,23,09,31,9.90
2018,04,23,09,32,9.90
2018,04,23,09,33,9.90
2018,04,23,09,34,9.90
2018,04,23,09,35,10.00
2018,04,23,09,36,10.00
2018,04,23,09,37,10.10
2018,04,23,09,38,10.10
2018,04,23,09,39,10.10
2018,04,23,09,40,10.10
2018,04,23,09,41,10.10
2018,04,23,09,42,10.10
2018,04,23,09,43,10.10
2018,04,23,09,44,10.20
2018,04,23,09,45,10.20
2018,04,23,09,46,10.30
2018,04,23,09,47,10.30
2018,04,23,09,48,10.30
2018,04,23,09,49,10.30
2018,04,23,09,50,10.40
2018,04,23,09,51,10.40
2018,04,23,09,52,10.40
2018,04,23,09,53,10.40
2018,04,23,09,54,10.40
2018,04,23,09,55,10.40
2018,04,23,09,56,10.50
2018,04,23,09,57,10.60
2018,04,23,09,58,10.60
2018,04,23,09,59,10.60
2018,04,23,10,00,10.70
2018,04,23,10,01,10.70
2018,04,23,10,02,10.80
2018,04,23,10,03,10.80
2018,04,23,10,04,10.80
2018,04,23,10,05,10.90
2018,04,23,10,06,10.90
2018,04,23,10,07,10.90
2018,04,23,10,08,10.90
2018,04,23,10,09,10.90
2018,04,23,10,10,10.90
2018,04,23,10,11,11.00
2018,04,23,10,12,11.00
2018,04,23,10,13,11.00
2018,04,23,10,14,11.00
2018,04,23,10,15,11.10
2018,04,23,10,16,11.20
2018,04,23,10,17,11.20
2018,04,23,10,18,11.10
2018,04,23,10,19,11.10
2018,04,23,10,20,11.10
2018,04,23,10,21,11.10
2018,04,23,10,22,11.20
2018,04,23,10,23,11.20
2018,04,23,10,24,11.20
2018,04,23,10,25,11.20
2018,04,23,10,26,11.30
2018,04,23,10,27,11.30
2018,04,23,10,28,11.30
2018,04,23,10,29,11.30
2018,04,23,10,30,11.30
2018,04,23,10,31,11.20
2018,04,23,10,32,11.20
2018,04,23,10,33,11.30
2018,04,23,10,34,11.30
2018,04,23,10,35,11.30
2018,04,23,10,36,11.30
2018,04,23,10,37,11.40
2018,04,23,10,38,11.40
2018,04,23,10,39,11.50
2018,04,23,10,40,11.50
2018,04,23,10,41,11.60
2018,04,23,10,42,11.70
2018,04,23,10,43,11.80
2018,04,23,10,44,11.80
2018,04,23,10,45,11.80
2018,04,23,10,46,11.80
2018,04,23,10,47,11.90
2018,04,23,10,48,11.90
2018,04,23,10,49,12.00
2018,04,23,10,50,12.10
2018,04,23,10,51,12.30
2018,04,23,10,52,12.30
2018,04,23,10,53,12.30
2018,04,23,10,54,12.40
2018,04,23,10,55,12.40
2018,04,23,10,56,12.40
2018,04,23,10,57,12.40
2018,04,23,10,58,12.40
2018,04,23,10,59,12.40
2018,04,23,11,00,12.40
2018,04,23,11,01,12.30
2018,04,23,11,02,12.30
2018,04,23,11,03,12.30
2018,04,23,11,04,12.30
2018,04,23,11,05,12.40
2018,04,23,11,06,12.50
2018,04,23,11,07,12.50
2018,04,23,11,08,12.50
2018,04,23,11,09,12.50
2018,04,23,11,10,12.50
2018,04,23,11,11,12.60
2018,04,23,11,12,12.70
2018,04,23,11,13,12.70
2018,04,23,11,14,12.70
2018,04,23,11,15,12.70
2018,04,23,11,16,12.70
2018,04,23,11,17,12.80
2018,04,23,11,18,12.80
2018,04,23,11,19,12.90
2018,04,23,11,20,12.90
2018,04,23,11,21,13.00
2018,04,23,11,22,13.00
2018,04,23,11,23,13.10
2018,04,23,11,24,13.10
2018,04,23,11,25,13.10
2018,04,23,11,26,13.20
2018,04,23,11,27,13.20
2018,04,23,11,28,13.20
2018,04,23,11,29,13.20
2018,04,23,11,30,13.20
2018,04,23,11,31,13.10
2018,04,23,11,32,13.20
2018,04,23,11,33,13.20
2018,04,23,11,34,13.20
2018,04,23,11,35,13.20
2018,04,23,11,36,13.20
2018,04,23,11,37,13.20
2018,04,23,11,38,13.20
2018,04,23,11,39,13.20
2018,04,23,11,40,13.30
2018,04,23,11,41,13.30
2018,04,23,11,42,13.30
2018,04,23,11,43,13.30
2018,04,23,11,44,13.30
2018,04,23,11,45,13.30
2018,04,23,11,46,13.30
2018,04,23,11,47,13.30
2018,04,23,11,48,13.40
2018,04,23,11,49,13.50
2018,04,23,11,50,13.70
2018,04,23,11,51,13.80
2018,04,23,11,52,13.80
2018,04,23,11,53,13.70
2018,04,23,11,54,13.70
2018,04,23,11,55,13.60
2018,04,23,11,56,13.50
2018,04,23,11,57,13.40
2018,04,23,11,58,13.50
2018,04,23,11,59,13.50
2018,04,23,12,00,13.60
2018,04,23,12,01,13.60
2018,04,23,12,02,13.60
2018,04,23,12,03,13.60
2018,04,23,12,04,13.70
2018,04,23,12,05,13.80
2018,04,23,12,06,13.80
2018,04,23,12,07,13.80
2018,04,23,12,08,13.70
2018,04,23,12,09,13.70
2018,04,23,12,10,13.60
2018,04,23,12,11,13.50
2018,04,23,12,12,13.40
2018,04,23,12,13,13.40
2018,04,23,12,14,13.40
2018,04,23,12,15,13.30
2018,04,23,12,16,13.30
2018,04,23,12,17,13.30
2018,04,23,12,18,13.40
2018,04,23,12,19,13.40
2018,04,23,12,20,13.30
2018,04,23,12,21,13.20
2018,04,23,12,22,13.20
2018,04,23,12,23,13.20
2018,04,23,12,24,13.10
2018,04,23,12,25,13.20
2018,04,23,12,26,13.20
2018,04,23,12,27,13.20
2018,04,23,12,28,13.30
2018,04,23,12,29,13.30
2018,04,23,12,30,13.20
2018,04,23,12,31,13.10
2018,04,23,12,32,13.00
2018,04,23,12,33,12.90
2018,04,23,12,34,12.80
2018,04,23,12,35,12.70
2018,04,23,12,36,12.70
2018,04,23,12,37,12.80
2018,04,23,12,38,12.70
2018,04,23,12,39,12.70
2018,04,23,12,40,12.70
2018,04,23,12,41,12.80
2018,04,23,12,42,12.80
2018,04,23,12,43,12.80
2018,04,23,12,44,12.90
2018,04,23,12,45,12.90
2018,04,23,12,46,13.00
2018,04,23,12,47,13.00
2018,04,23,12,48,13.10
2018,04,23,12,49,13.20
2018,04,23,12,50,13.30
2018,04,23,12,51,13.40
2018,04,23,12,52,13.60
2018,04,23,12,53,13.60
2018,04,23,12,54,13.60
2018,04,23,12,55,13.50
2018,04,23,12,56,13.40
2018,04,23,12,57,13.30
2018,04,23,12,58,13.20
2018,04,23,12,59,13.20
2018,04,23,13,00,13.20
2018,04,23,13,01,13.30
2018,04,23,13,02,13.30
2018,04,23,13,03,13.30
2018,04,23,13,04,13.30
2018,04,23,13,05,13.20
2018,04,23,13,06,13.20
2018,04,23,13,07,13.20
2018,04,23,13,08,13.30
2018,04,23,13,09,13.40
2018,04,23,13,10,13.40
2018,04,23,13,11,13.50
2018,04,23,13,12,13.50
2018,04,23,13,13,13.50
2018,04,23,13,14,13.40
2018,04,23,13,15,13.40
2018,04,23,13,16,13.40
2018,04,23,13,17,13.40
2018,04,23,13,18,13.30
2018,04,23,13,19,13.30
2018,04,23,13,20,13.30
2018,04,23,13,21,13.30
2018,04,23,13,22,13.30
2018,04,23,13,23,13.30
2018,04,23,13,24,13.30
2018,04,23,13,25,13.40
2018,04,23,13,26,13.40
2018,04,23,13,27,13.50
2018,04,23,13,28,13.60
2018,04,23,13,29,13.60
2018,04,23,13,30,13.70
2018,04,23,13,31,13.70
2018,04,23,13,32,13.80
2018,04,23,13,33,13.80
2018,04,23,13,34,13.90
2018,04,23,13,35,14.00
2018,04,23,13,36,14.10
2018,04,23,13,37,14.10
2018,04,23,13,38,14.20
2018,04,23,13,39,14.20
2018,04,23,13,40,14.20
2018,04,23,13,41,14.20
2018,04,23,13,42,14.20
2018,04,23,13,43,14.20
2018,04,23,13,44,14.10
2018,04,23,13,45,14.10
2018,04,23,13,46,14.20
2018,04,23,13,47,14.30
2018,04,23,13,48,14.30
2018,04,23,13,49,14.40
2018,04,23,13,50,14.50
2018,04,23,13,51,14.50
2018,04,23,13,52,14.60
2018,04,23,13,53,14.60
2018,04,23,13,54,14.60
2018,04,23,13,55,14.70
2018,04,23,13,56,14.70
2018,04,23,13,57,14.70
2018,04,23,13,58,14.60
2018,04,23,13,59,14.50
2018,04,23,14,00,14.40
2018,04,23,14,01,14.30
2018,04,23,14,02,14.30
2018,04,23,14,03,14.20
2018,04,23,14,04,14.10
2018,04,23,14,05,14.00
2018,04,23,14,06,13.90
2018,04,23,14,07,13.90
2018,04,23,14,08,13.90
2018,04,23,14,09,13.90
2018,04,23,14,10,13.90
2018,04,23,14,11,13.80
2018,04,23,14,12,13.80
2018,04,23,14,13,13.80
2018,04,23,14,14,13.80
2018,04,23,14,15,13.80
2018,04,23,14,16,13.80
2018,04,23,14,17,13.80
2018,04,23,14,18,13.90
2018,04,23,14,19,13.90
2018,04,23,14,20,14.00
2018,04,23,14,21,14.10
2018,04,23,14,22,14.10
2018,04,23,14,23,14.20
2018,04,23,14,24,14.20
2018,04,23,14,25,14.30
2018,04,23,14,26,14.40
2018,04,23,14,27,14.50
2018,04,23,14,28,14.50
2018,04,23,14,29,14.60
2018,04,23,14,30,14.60
2018,04,23,14,31,14.60
2018,04,23,14,32,14.60
2018,04,23,14,33,14.70
2018,04,23,14,34,14.60
2018,04,23,14,35,14.60
2018,04,23,14,36,14.60
2018,04,23,14,37,14.60
2018,04,23,14,38,14.60
2018,04,23,14,39,14.70
2018,04,23,14,40,14.70
2018,04,23,14,41,14.70
2018,04,23,14,42,14.80
2018,04,23,14,43,14.80
2018,04,23,14,44,14.90
2018,04,23,14,45,15.00
2018,04,23,14,46,15.00
2018,04,23,14,47,15.10
2018,04,23,14,48,15.10
2018,04,23,14,49,15.10
2018,04,23,14,50,15.00
2018,04,23,14,51,15.00
2018,04,23,14,52,15.00
2018,04,23,14,53,14.90
2018,04,23,14,54,14.90
2018,04,23,14,55,14.80
2018,04,23,14,56,14.70
2018,04,23,14,57,14.70
2018,04,23,14,58,14.70
2018,04,23,14,59,14.70
2018,04,23,15,00,14.70
2018,04,23,15,01,14.70
2018,04,23,15,02,14.70
2018,04,23,15,03,14.80
2018,04,23,15,04,14.80
2018,04,23,15,05,14.90
2018,04,23,15,06,14.90
2018,04,23,15,07,14.90
2018,04,23,15,08,15.00
2018,04,23,15,09,15.00
2018,04,23,15,10,15.10
2018,04,23,15,11,15.10
2018,04,23,15,12,15.10
2018,04,23,15,13,15.20
2018,04,23,15,14,15.40
2018,04,23,15,15,15.60
2018,04,23,15,16,15.80
2018,04,23,15,17,15.90
2018,04,23,15,18,15.80
2018,04,23,15,19,15.70
2018,04,23,15,20,15.40
2018,04,23,15,21,15.20
2018,04,23,15,22,15.20
2018,04,23,15,23,15.10
2018,04,23,15,24,15.20
2018,04,23,15,25,15.20
2018,04,23,15,26,15.20
2018,04,23,15,27,15.20
2018,04,23,15,28,15.30
2018,04,23,15,29,15.30
2018,04,23,15,30,15.30
2018,04,23,15,31,15.40
2018,04,23,15,32,15.40
2018,04,23,15,33,15.50
2018,04,23,15,34,15.50
2018,04,23,15,35,15.60
2018,04,23,15,36,15.70
2018,04,23,15,37,15.80
2018,04,23,15,38,15.90
2018,04,23,15,39,15.90
2018,04,23,15,40,15.90
2018,04,23,15,41,15.90
2018,04,23,15,42,15.80
2018,04,23,15,43,15.70
2018,04,23,15,44,15.70
2018,04,23,15,45,15.70
2018,04,23,15,46,15.70
2018,04,23,15,47,15.70
2018,04,23,15,48,15.70
2018,04,23,15,49,15.70
2018,04,23,15,50,15.70
2018,04,23,15,51,15.80
2018,04,23,15,52,15.70
2018,04,23,15,53,15.70
2018,04,23,15,54,15.80
2018,04,23,15,55,15.80
2018,04,23,15,56,15.80
2018,04,23,15,57,15.80
2018,04,23,15,58,15.80
2018,04,23,15,59,15.90
2018,04,23,16,00,16.00
2018,04,23,16,01,16.10
2018,04,23,16,02,16.10
2018,04,23,16,03,16.20
2018,04,23,16,04,16.30
2018,04,23,16,05,16.30
2018,04,23,16,06,16.40
2018,04,23,16,07,16.50
2018,04,23,16,08,16.60
2018,04,23,16,09,16.70
2018,04,23,16,10,16.80
2018,04,23,16,11,16.80
2018,04,23,16,12,16.90
2018,04,23,16,13,16.90
2018,04,23,16,14,16.90
2018,04,23,16,15,16.90
2018,04,23,16,16,16.80
2018,04,23,16,17,16.70
2018,04,23,16,18,16.70
2018,04,23,16,19,16.70
2018,04,23,16,20,16.60
2018,04,23,16,21,16.60
2018,04,23,16,22,16.50
2018,04,23,16,23,16.50
2018,04,23,16,24,16.50
2018,04,23,16,25,16.50
2018,04,23,16,26,16.50
2018,04,23,16,27,16.50
2018,04,23,16,28,16.40
2018,04,23,16,29,16.40
2018,04,23,16,30,16.40
2018,04,23,16,31,16.30
2018,04,23,16,32,16.30
2018,04,23,16,33,16.30
2018,04,23,16,34,16.30
2018,04,23,16,35,16.30
2018,04,23,16,36,16.30
2018,04,23,16,37,16.40
2018,04,23,16,38,16.40
2018,04,23,16,39,16.50
2018,04,23,16,40,16.50
2018,04,23,16,41,16.50
2018,04,23,16,42,16.70
2018,04,23,16,43,16.80
2018,04,23,16,44,16.90
2018,04,23,16,45,17.00
2018,04,23,16,46,17.10
2018,04,23,16,47,17.20
2018,04,23,16,48,17.30
2018,04,23,16,49,17.40
2018,04,23,16,50,17.40
2018,04,23,16,51,17.40
2018,04,23,16,52,17.50
2018,04,23,16,53,17.50
2018,04,23,16,54,17.60
2018,04,23,16,55,17.50
2018,04,23,16,56,17.40
2018,04,23,16,57,17.30
2018,04,23,16,58,17.20
2018,04,23,16,59,17.20
2018,04,23,17,00,17.10
2018,04,23,17,01,17.10
2018,04,23,17,02,17.10
2018,04,23,17,03,17.10
2018,04,23,17,04,17.20
2018,04,23,17,05,17.20
2018,04,23,17,06,17.30
2018,04,23,17,07,17.40
2018,04,23,17,08,17.40
2018,04,23,17,09,17.40
2018,04,23,17,10,17.50
2018,04,23,17,11,17.40
2018,04,23,17,12,17.40
2018,04,23,17,13,17.40
2018,04,23,17,14,17.30
2018,04,23,17,15,17.30
2018,04,23,17,16,17.20
2018,04,23,17,17,17.20
2018,04,23,17,18,17.20
2018,04,23,17,19,17.20
2018,04,23,17,20,17.10
2018,04,23,17,21,17.10
2018,04,23,17,22,17.10
2018,04,23,17,23,17.00
2018,04,23,17,24,17.00
2018,04,23,17,25,16.90
2018,04,23,17,26,16.90
2018,04,23,17,27,16.90
2018,04,23,17,28,16.80
2018,04,23,17,29,16.80
2018,04,23,17,30,16.80
2018,04,23,17,31,16.70
2018,04,23,17,32,16.70
2018,04,23,17,33,16.70
2018,04,23,17,34,16.70
2018,04,23,17,35,16.70
2018,04,23,17,36,16.70
2018,04,23,17,37,16.70
2018,04,23,17,38,16.80
2018,04,23,17,39,16.80
2018,04,23,17,40,16.80
2018,04,23,17,41,16.80
2018,04,23,17,42,16.80
2018,04,23,17,43,16.80
2018,04,23,17,44,16.80
2018,04,23,17,45,16.80
2018,04,23,17,46,16.90
2018,04,23,17,47,17.00
2018,04,23,17,48,17.00
2018,04,23,17,49,17.10
2018,04,23,17,50,17.10
2018,04,23,17,51,17.20
2018,04,23,17,52,17.20
2018,04,23,17,53,17.20
2018,04,23,17,54,17.30
2018,04,23,17,55,17.30
2018,04,23,17,56,17.30
2018,04,23,17,57,17.40
2018,04,23,17,58,17.40
2018,04,23,17,59,17.40
2018,04,23,18,00,17.40
2018,04,23,18,01,17.40
2018,04,23,18,02,17.40
2018,04,23,18,03,17.30
2018,04,23,18,04,17.20
2018,04,23,18,05,17.10
2018,04,23,18,06,17.00
2018,04,23,18,07,16.90
2018,04,23,18,08,16.80
2018,04,23,18,09,16.70
2018,04,23,18,10,16.70
2018,04,23,18,11,16.60
2018,04,23,18,12,16.60
2018,04,23,18,13,16.50
2018,04,23,18,14,16.50
2018,04,23,18,15,16.50
2018,04,23,18,16,16.40
2018,04,23,18,17,16.40
2018,04,23,18,18,16.40
2018,04,23,18,19,16.30
2018,04,23,18,20,16.30
2018,04,23,18,21,16.30
2018,04,23,18,22,16.30
2018,04,23,18,23,16.20
2018,04,23,18,24,16.20
2018,04,23,18,25,16.10
2018,04,23,18,26,16.10
2018,04,23,18,27,16.10
2018,04,23,18,28,16.00
2018,04,23,18,29,16.00
2018,04,23,18,30,16.00
2018,04,23,18,31,16.00
2018,04,23,18,32,16.00
2018,04,23,18,33,15.90
2018,04,23,18,34,15.90
2018,04,23,18,35,15.90
2018,04,23,18,36,15.90
2018,04,23,18,37,15.90
2018,04,23,18,38,15.90
2018,04,23,18,39,15.90
2018,04,23,18,40,15.90
2018,04,23,18,41,15.90
2018,04,23,18,42,15.90
2018,04,23,18,43,15.90
2018,04,23,18,44,15.90
2018,04,23,18,45,15.90
2018,04,23,18,46,15.90
2018,04,23,18,47,15.90
2018,04,23,18,48,15.90
2018,04,23,18,49,15.90
2018,04,23,18,50,15.90
2018,04,23,18,51,15.80
2018,04,23,18,52,15.80
2018,04,23,18,53,15.80
2018,04,23,18,54,15.70
2018,04,23,18,55,15.70
2018,04,23,18,56,15.70
2018,04,23,18,57,15.70
2018,04,23,18,58,15.70
2018,04,23,18,59,15.70
2018,04,23,19,00,15.70
2018,04,23,19,01,15.70
2018,04,23,19,02,15.70
2018,04,23,19,03,15.70
2018,04,23,19,04,15.70
2018,04,23,19,05,15.70
2018,04,23,19,06,15.70
